| Station | Date | Time | Temp (°F) | RH (%) | Dew Pt (°F) | Wind Spd (mph) | Wind Dir (°) | Wind Gust (mph) | Wind Gst Dir (°) | Latest Rain (In) | Soil Moist (%) | Soil Temp (°F) | Daily Rain (In) | Daily Min Temp (°F) | Daily Max Temp (°F) | Daily Max Wind (mph) |
|---|---|---|---|---|---|---|---|---|---|---|---|---|---|---|---|---|
| Hobart Mills | 5/9/26 | 1850 | 70.5 6.0 | 21 13 | 28.4 6.7 | 1.1 0.4 | NNE | 15 | 3.2 0.6 | N | 8 | 0.00 | - | 32.0 0.0 | 0.03 | 28.9 0.0 | 73.1 2.5 | 9.4 0.9 |
| Prosser Dam | 5/9/26 | 1900 | 73.1 5.8 | 20 15 | 29.5 8.8 | 4.3 1.7 | N | 11 | 7.3 3.2 | NNW | 346 | 0.00 | 21.1 1.2 | 54.0 2.0 | 0.00 | 35.9 7.2 | 74.8 3.0 | 16.2 6.1 |
| West Incline Village | 5/9/26 | 1900 | 66.4 4.4 | 19 12 | 23.4 7.9 | 2.1 0.8 | S | 169 | 4.5 0.9 | SSE | 168 | 0.00 | 32.1 0.6 | 46.9 0.8 | 0.00 | 44.6 2.1 | 69.0 4.1 | 16.5 1.7 |
| Incline Village (Fairview Blvd) | 5/9/26 | 1900 | 68.6 7.4 | 19 18 | 24.8 9.9 | 0.9 0.5 | SSE | 165 | 3.4 2.4 | SSE | 168 | 0.00 | 25.8 0.3 | 53.8 1.4 | 0.00 | 46.7 2.2 | 72.4 5.8 | 13.4 2.0 |
| Incline Village (Diamond Peak) | 5/9/26 | 1900 | 64.3 5.7 | 18 17 | 19.6 11.5 | 0.6 2.2 | NE | 37 | 3.5 2.7 | NE | 53 | 0.00 | 9.1 0.3 | 49.5 1.9 | 0.00 | 49.7 4.6 | 65.7 2.5 | 19.0 11.5 |
| Incline Village (Mill Creek) | 5/9/26 | 1900 | 70.3 6.2 | 16 15 | 22.1 10.5 | 2.3 0.2 | NNE | 21 | 7.3 1.4 | N | 351 | 0.00 | 10.8 0.1 | 47.6 0.8 | 0.00 | 45.4 4.4 | 72.3 5.3 | 15.6 0.1 |
| Incline Village (Lakeshore Blvd) | 5/9/26 | 1900 | 64.3 3.5 | 40 9 | 39.2 2.3 | 1.3 1.1 | WSW | 241 | 4.0 2.2 | WSW | 258 | 0.00 | 29.9 0.6 | 59.9 0.9 | 0.00 | 39.5 5.4 | 68.6 4.3 | 13.7 8.2 |
| Glenbrook | 5/9/26 | 1900 | 68.2 6.6 | 24 20 | 30.0 9.7 | 2.0 0.1 | E | 91 | 6.2 1.7 | SE | 130 | 0.00 | 44.3 0.1 | 45.9 0.3 | 0.00 | 40.7 3.2 | 69.6 3.1 | 17.4 11.7 |
| Zephyr Cove | 5/9/26 | 1900 | 67.2 4.8 | 22 14 | 27.1 7.9 | 0.0 1.0 | NW | 307 | 0.1 2.4 | NW | 307 | 0.00 | - | 34.3 0.0 | 0.00 | 44.5 4.8 | 68.3 0.1 | 7.1 0.2 |
| Kingsbury Grade | 5/9/26 | 1900 | 67.8 5.2 | 16 18 | 20.5 13.8 | 1.8 0.2 | E | 90 | 5.6 0.5 | E | 94 | 0.00 | 6.9 0.1 | 59.7 2.1 | 0.00 | 42.9 6.4 | 69.9 0.7 | 19.1 5.5 |
| South Daggett Pass (Ridge) | 5/9/26 | 1900 | 64.1 4.6 | 18 18 | 19.3 13.1 | 1.6 1.9 | E | 87 | 4.5 12.4 | E | 81 | 0.00 | 6.7 0.0 | 50.2 1.2 | 0.00 | 49.3 8.2 | 65.9 3.3 | 15.6 1.2 |
| Palomino Valley | 5/9/26 | 1900 | 79.9 2.6 | 13 7 | 24.6 8.9 | 7.0 1.1 | NW | 325 | 10.6 0.6 | NNW | 328 | 0.00 | 7.2 0.1 | 71.8 1.8 | 0.00 | 41.4 0.2 | 81.7 1.9 | 20.2 4.1 |
| East Cold Springs | 5/9/26 | 1900 | 74.5 4.1 | 18 7 | 28.7 4.2 | 3.4 4.9 | NNE | 30 | 6.0 7.1 | NE | 38 | 0.00 | 1.8 0.0 | 60.4 1.0 | 0.00 | 50.5 5.4 | 77.2 3.0 | 27.0 4.3 |
| Peavine | 5/9/26 | 1900 | 62.8 2.0 | 27 3 | 28.7 4.2 | 6.3 5.2 | SW | 219 | 8.4 2.4 | SW | 229 | 0.00 | - | 53.4 0.0 | 0.00 | 46.0 0.7 | 74.5 3.8 | 16.2 7.9 |
| West Verdi Peak | 5/9/26 | 1900 | 70.5 4.2 | 19 11 | 25.9 8.2 | 1.1 4.8 | ESE | 122 | 4.3 6.0 | E | 84 | 0.00 | 18.5 1.3 | 57.2 1.0 | 0.00 | 48.4 4.7 | 74.1 2.6 | 16.0 3.6 |
| West Verdi | 5/9/26 | 1900 | 72.0 0.9 | 22 6 | 30.9 5.7 | 6.8 1.8 | W | 272 | 11.7 3.6 | W | 268 | 0.00 | 7.8 0.1 | 67.6 1.6 | 0.00 | 45.4 2.8 | 78.3 2.2 | 14.5 5.7 |
| South Verdi | 5/9/26 | 1900 | 74.9 4.2 | 16 12 | 24.9 10.6 | 7.3 1.0 | WSW | 248 | 11.0 0.2 | WSW | 248 | 0.00 | 16.3 0.1 | 69.2 1.2 | 0.00 | 51.7 11.1 | 76.0 2.1 | 28.8 1.7 |
| Northwest Reno | 5/9/26 | 1900 | 76.8 4.7 | 12 12 | 19.9 13.2 | 5.5 4.7 | NE | 42 | 8.4 6.3 | NE | 49 | 0.00 | 24.0 0.1 | 69.9 2.0 | 0.00 | 54.3 5.5 | 79.2 2.3 | 34.4 6.4 |
| North Lawton | 5/9/26 | 1900 | 76.9 4.3 | 14 10 | 24.0 9.2 | 4.0 4.0 | NE | 39 | 7.5 4.8 | NNE | 26 | 0.00 | - | 60.4 0.0 | 0.00 | 48.0 0.8 | 78.9 1.9 | 17.9 4.1 |
| West Reno (Mogul) | 5/9/26 | 1900 | 76.4 4.1 | 14 11 | 23.7 11.1 | 1.3 2.3 | E | 87 | 4.8 6.7 | ESE | 110 | 0.00 | 36.0 0.6 | 63.5 1.0 | 0.00 | 48.5 1.1 | 78.0 0.8 | 21.0 3.7 |
| Caughlin (Hunter Lake Trail) | 9/16/25 | 0800 | 59.7 3.5 | 41 11 | 35.9 2.7 | 0.0 0.0 | N | 0 | 0.0 0.0 | ENE | 66 | 0.00 | 15.7 0.0 | 69.8 0.5 | 0.00 | 55.7 3.2 | 67.7 9.1 | 9.4 0.9 |
| ArrowCreek | 5/9/26 | 1900 | 77.2 4.5 | 14 7 | 24.8 6.4 | 1.9 5.6 | W | 274 | 8.7 2.0 | WSW | 256 | 0.00 | - | 32.0 0.0 | 0.00 | 50.4 4.4 | 78.6 1.6 | 15.3 10.7 |
| Tracy | 5/9/26 | 1900 | 80.6 1.9 | 12 8 | 23.0 11.2 | 6.4 1.3 | ENE | 63 | 11.3 2.0 | E | 80 | 0.00 | 8.2 0.1 | 69.2 1.3 | 0.00 | 52.2 0.7 | 82.5 1.3 | 20.5 3.5 |
| Virginia Highlands | 5/9/26 | 1900 | 71.8 2.2 | 13 7 | 18.5 8.4 | 3.8 1.8 | E | 82 | 8.4 2.4 | ENE | 77 | 0.00 | 7.9 0.2 | 59.0 1.2 | 0.00 | 53.6 4.2 | 74.4 1.6 | 16.3 3.4 |
| Virginia City | 5/9/26 | 1900 | 70.5 4.6 | 13 12 | 18.1 11.7 | 2.4 4.6 | E | 85 | 6.6 6.6 | E | 85 | 0.00 | 8.4 0.1 | 61.4 1.7 | 0.00 | 53.6 0.4 | 73.3 2.2 | 27.1 3.8 |
| Six Mile Canyon | 9/9/25 | 0630 | 60.2 9.6 | 37 6 | 33.7 4.8 | 4.1 2.5 | W | 277 | 6.1 2.9 | WNW | 286 | 0.00 | 12.5 0.0 | 75.5 0.7 | 0.00 | 57.9 7.6 | 64.4 1.9 | 7.0 3.9 |
| Mt Rose Highway | 4/30/26 | 0510 | 40.8 4.7 | 47 13 | 22.3 1.3 | 2.3 0.2 | WSW | 243 | 4.8 2.1 | WSW | 246 | 0.00 | 24.1 0.3 | 43.0 0.8 | 0.00 | 40.5 4.7 | 43.0 5.3 | 7.7 0.4 |
| Pleasant Valley | 5/9/26 | 1900 | 77.1 1.9 | 18 2 | 30.0 1.3 | 4.0 1.2 | WSW | 247 | 6.1 0.6 | WSW | 241 | 0.00 | 2.9 0.1 | 68.1 1.8 | 0.00 | 47.6 6.6 | 81.7 4.8 | 13.2 6.5 |
| New Washoe City | 5/9/26 | 1900 | 76.5 5.9 | 15 12 | 24.9 9.6 | 2.1 2.1 | WSW | 238 | 4.0 7.3 | WSW | 242 | 0.00 | 4.4 0.0 | 62.5 1.2 | 0.00 | 47.9 3.6 | 78.1 2.6 | 14.2 6.7 |
| Franktown Creek | 5/9/26 | 1900 | 65.1 4.4 | 30 4 | 33.2 0.4 | 1.7 1.5 | WNW | 296 | 3.7 7.9 | NW | 305 | 0.00 | 11.2 0.0 | 58.5 1.1 | 0.00 | 45.4 2.2 | 79.2 3.5 | 9.2 9.3 |
| Musgrove Creek | 5/9/26 | 1900 | 70.4 3.2 | 18 7 | 24.5 5.6 | 2.3 0.9 | SW | 220 | 2.7 6.2 | SW | 219 | 0.00 | 40.2 1.5 | 55.0 0.5 | 0.00 | 52.2 0.4 | 75.3 2.6 | 11.6 3.6 |
| East Carson | 11/23/24 | 0110 | 28.6 28.4 | - | - | 4.7 11.0 | SW | 220 | 14.7 10.1 | SW | 219 | 0.02 | - | 50.9 0.1 | 0.02 | -25.9 79.1 | 42.9 14.6 | 16.0 10.7 |
| Kings Canyon | 5/9/26 | 1900 | 68.6 0.6 | 28 3 | 34.3 2.5 | 3.3 5.6 | S | 174 | 5.0 12.4 | S | 171 | 0.00 | 14.1 0.5 | 64.2 1.5 | 0.00 | 47.3 3.9 | 77.4 3.1 | 12.5 5.2 |
| Carson City (Voltaire Canyon) | 5/9/26 | 1900 | 75.8 4.9 | 15 10 | 24.6 8.1 | 7.0 5.0 | NNE | 24 | 12.0 5.8 | NNE | 28 | 0.00 | 2.8 0.0 | 63.9 1.3 | 0.00 | 53.8 1.8 | 78.4 2.8 | 14.9 10.3 |
| Jacks Valley | 5/9/26 | 1900 | 73.9 3.3 | 19 6 | 28.5 4.6 | 3.4 6.9 | N | 351 | 4.8 12.4 | N | 349 | 0.00 | 13.2 0.3 | 77.4 2.1 | 0.00 | 47.5 1.1 | 77.7 2.7 | 15.6 8.2 |
| Genoa | 5/9/26 | 1900 | 71.1 0.4 | 22 4 | 30.3 4.3 | 1.8 1.2 | SSW | 210 | 4.2 7.7 | SSW | 194 | 0.00 | 6.9 0.7 | 73.5 2.4 | 0.00 | 47.9 3.2 | 81.1 1.8 | 9.3 6.7 |
| South Genoa (Walleys Hot Springs) | 5/9/26 | 1900 | 77.5 4.0 | 16 7 | 27.2 5.9 | 6.0 4.9 | WNW | 285 | 9.2 12.0 | WNW | 294 | 0.00 | 13.9 0.8 | 66.3 1.2 | 0.00 | 43.3 3.0 | 80.3 2.5 | 10.1 13.9 |
| SW Gardnerville (HWY 88) | 5/9/26 | 1900 | 72.7 1.5 | 34 5 | 42.7 5.4 | 6.6 7.1 | W | 262 | 8.6 10.4 | W | 264 | 0.00 | 3.4 0.0 | 61.2 1.1 | 0.00 | 41.4 4.1 | 77.9 1.7 | 10.8 12.3 |
| Sheridan | 5/9/26 | 1900 | 70.1 2.1 | 24 0 | 31.4 2.0 | 8.0 1.2 | WSW | 238 | 9.6 7.5 | SW | 236 | 0.00 | 3.4 0.6 | 66.2 1.3 | 0.00 | 45.3 2.7 | 78.4 0.4 | 10.6 15.6 |
| Ruhenstroth | 5/9/26 | 1900 | 77.5 4.4 | 18 6 | 30.2 3.6 | 4.5 3.8 | NW | 304 | 9.1 3.1 | NW | 312 | 0.00 | 12.4 0.1 | 66.8 1.3 | 0.00 | 44.8 1.8 | 79.8 1.8 | 15.2 7.5 |
| Double Spring | 5/9/26 | 1900 | 72.0 3.4 | 21 3 | 29.9 0.5 | 7.1 4.9 | NNW | 342 | 11.8 5.1 | NNW | 346 | 0.00 | 31.3 0.0 | 64.8 1.1 | 0.00 | 40.4 1.6 | 75.1 1.3 | 15.9 16.1 |
| North Topaz Lake | 5/9/26 | 1900 | 73.8 3.2 | 17 5 | 26.2 3.4 | 5.3 4.3 | NNW | 328 | 10.2 7.0 | NNW | 346 | 0.00 | 9.8 0.0 | 73.5 0.9 | 0.00 | 54.4 2.2 | 77.5 1.2 | 19.4 8.8 |
| Wild Oat Mountain | 5/9/26 | 1900 | 71.6 2.4 | 18 6 | 25.6 4.9 | 7.7 3.9 | ENE | 68 | 12.4 6.3 | ENE | 58 | 0.00 | 16.9 0.1 | 64.5 2.0 | 0.00 | 53.3 1.8 | 74.8 0.1 | 15.2 9.2 |
| Smith Valley | 5/9/26 | 1900 | 76.9 1.8 | 17 2 | 29.0 1.2 | 3.6 3.7 | N | 353 | 6.2 6.5 | N | 352 | 0.00 | 5.9 0.0 | 68.8 1.8 | 0.00 | 48.0 2.5 | 79.3 1.5 | 13.5 8.0 |
| Pine Grove Mountain | 5/9/26 | 1900 | 62.0 1.3 | 19 5 | 19.1 4.4 | 5.7 6.5 | N | 354 | 10.7 10.2 | N | 354 | 0.00 | 20.8 0.7 | 59.9 1.3 | 0.00 | 47.3 0.1 | 65.3 1.5 | 18.3 7.1 |
| Paradise Hill | 5/9/26 | 1900 | 76.6 0.7 | 13 2 | 21.3 3.5 | 8.3 4.1 | WNW | 302 | 11.8 8.7 | WNW | 301 | 0.00 | 8.0 0.0 | 65.9 1.5 | 0.00 | 42.2 0.2 | 79.5 0.8 | 17.0 9.9 |
| Winnemucca | 5/9/26 | 1900 | 76.7 0.9 | 9 8 | 14.0 15.8 | 2.2 2.9 | NW | 316 | 4.5 4.8 | NNW | 342 | 0.00 | 6.0 0.0 | 66.4 1.5 | 0.00 | 51.4 0.4 | 79.0 0.5 | 15.2 12.9 |
| NE Elko | 5/9/26 | 1900 | 71.2 1.7 | 11 6 | 15.0 11.6 | 9.5 1.0 | W | 280 | 13.9 3.0 | W | 277 | 0.00 | 12.5 0.0 | 67.6 0.9 | 0.00 | 34.4 0.6 | 75.2 2.5 | 21.6 3.5 |
| North Elko | 5/9/26 | 1900 | 68.8 2.2 | 13 4 | 15.7 7.9 | 7.9 3.9 | NNW | 347 | 14.3 3.0 | NNW | 340 | 0.00 | 28.5 0.0 | 63.1 1.0 | 0.00 | 46.5 0.5 | 74.0 1.1 | 19.5 6.6 |
| South Elko | 5/9/26 | 1900 | 67.5 1.9 | 15 5 | 18.0 7.9 | 8.2 4.7 | NNW | 345 | 13.5 9.2 | NNW | 338 | 0.00 | 18.5 0.0 | 65.8 1.0 | 0.00 | 49.6 3.2 | - | 22.1 3.9 |
| Lamoille | 1/28/26 | 1720 | 33.2 0.5 | 65 17 | 22.8 6.3 | 5.8 1.5 | SSE | 166 | 7.7 1.9 | SE | 139 | 0.00 | 12.2 0.0 | 33.4 0.1 | 0.02 | 23.5 2.0 | 36.5 5.9 | 25.6 17.4 |
| Reid Gardner Sub | 5/9/26 | 1900 | 98.8 2.7 | 10 1 | 33.1 0.7 | 2.3 2.6 | SW | 222 | 5.1 5.6 | SW | 220 | 0.00 | 26.3 0.7 | 80.7 1.5 | 0.00 | 55.8 1.5 | 101.3 0.1 | 15.6 1.5 |
| Corn Creek | 5/9/26 | 1900 | 92.9 1.6 | 11 0 | 29.9 1.3 | 8.0 0.7 | WNW | 294 | 12.4 0.5 | WNW | 302 | 0.00 | 4.0 0.0 | 87.9 2.2 | 0.00 | 74.4 3.2 | 95.0 1.1 | 21.7 6.2 |
| Lucky Strike | 5/9/26 | 1900 | 79.8 1.6 | 11 0 | 20.6 1.0 | 6.7 3.7 | NW | 321 | 11.8 7.1 | NW | 312 | 0.00 | 4.5 0.2 | 82.4 2.1 | 0.00 | 65.8 3.4 | 82.7 0.2 | 24.1 11.2 |
| Lower Angel Peak | 5/9/26 | 1900 | 71.7 0.2 | 17 1 | 23.9 1.2 | 3.7 0.1 | SSW | 210 | 6.5 1.7 | SSW | 211 | 0.00 | 9.8 0.1 | 64.0 1.8 | 0.00 | 55.0 1.8 | 77.6 0.9 | 18.6 10.3 |
| Angel Peak | 5/9/26 | 1900 | 62.9 1.9 | 18 1 | 18.8 0.4 | 2.7 10.2 | WNW | 302 | 13.9 8.1 | WNW | 292 | 0.00 | 3.8 0.6 | 65.0 1.5 | 0.00 | 56.2 4.4 | 67.9 5.9 | 18.3 14.8 |
| Upper Kyle Canyon | 5/9/26 | 1900 | 62.6 1.5 | 22 3 | 23.7 2.4 | 3.3 3.2 | WNW | 299 | 6.1 5.8 | NW | 308 | 0.00 | 12.9 0.2 | 61.9 1.3 | 0.49 | 59.1 11.0 | 71.1 1.3 | 20.1 2.0 |
| Mt Charleston | 5/9/26 | 1900 | 63.8 0.4 | 23 2 | 25.6 2.3 | 2.1 0.2 | W | 266 | 4.8 1.2 | SW | 224 | 0.00 | 18.1 0.1 | 53.0 1.5 | 0.00 | 55.6 3.7 | 71.9 0.3 | 15.8 0.7 |
| Mid Kyle Canyon | 5/9/26 | 1900 | 70.6 0.4 | 17 0 | 23.5 0.0 | 6.8 0.1 | WNW | 301 | 9.9 0.5 | NW | 310 | 0.00 | 7.0 0.0 | 66.6 1.0 | 0.02 | 57.7 1.3 | 78.1 0.1 | 20.7 11.3 |
| Blue Diamond | 5/9/26 | 1900 | 90.1 1.4 | 11 0 | 28.6 0.7 | 8.1 4.2 | W | 270 | 13.4 6.6 | SW | 227 | 0.00 | 3.1 0.0 | 80.0 1.6 | 0.00 | 69.8 1.2 | 92.9 0.5 | 33.4 8.9 |
| Artesian Sub | 5/9/26 | 1900 | 100.1 1.3 | 9 0 | 30.1 0.4 | 3.6 1.7 | SE | 140 | 8.7 3.7 | SE | 141 | 0.00 | 13.0 0.1 | 75.7 0.9 | 0.00 | 74.8 4.6 | 102.5 0.3 | 12.8 2.5 |
| North Henderson | 5/9/26 | 1900 | 101.0 1.5 | 8 1 | 29.8 2.1 | 3.4 5.7 | W | 271 | 8.3 5.6 | W | 281 | 0.00 | 9.5 0.0 | 83.4 2.1 | 0.00 | 79.7 6.8 | 102.2 0.3 | 16.6 3.1 |
| Sandy Valley | 5/9/26 | 1900 | 93.1 0.9 | 11 0 | 30.6 0.3 | 6.6 1.6 | WNW | 283 | 9.2 2.1 | WNW | 297 | 0.00 | 4.6 0.0 | 89.5 2.3 | 0.00 | 69.4 0.7 | 96.0 0.9 | 21.5 10.4 |
| Searchlight | 5/9/26 | 1900 | 90.3 0.6 | 11 3 | 29.4 5.9 | 8.2 3.8 | ESE | 122 | 13.5 2.7 | SE | 127 | 0.00 | 4.9 0.0 | 88.4 2.6 | 0.00 | 69.9 1.4 | 93.5 0.6 | 45.0 15.2 |
| Laughlin | 5/9/26 | 1900 | 104.4 0.6 | 11 0 | 39.0 0.5 | 8.1 0.5 | SSE | 158 | 11.2 1.0 | SSE | 164 | 0.00 | 4.2 0.0 | 89.4 2.4 | 0.00 | 77.2 3.6 | 106.7 1.0 | 21.7 2.1 |
| 31Mission Hills | 5/9/26 | 1900 | 95.8 0.8 | 9 1 | 27.2 2.3 | 5.0 4.3 | S | 176 | 8.4 8.6 | SSW | 210 | 0.00 | 4.1 0.0 | 100.5 2.9 | 0.00 | 75.6 1.4 | 98.0 0.4 | 21.9 6.6 |
| 32 Enterprise Sierra Cliffs | 5/9/26 | 1900 | 92.4 1.5 | 9 0 | 24.4 0.5 | 4.5 5.4 | WSW | 246 | 7.2 10.3 | SW | 218 | 0.00 | 2.5 0.0 | 93.3 1.3 | 0.00 | 75.2 2.1 | 95.0 0.4 | 18.8 7.0 |
| Max | 104.4 | 40 | 42.7 | 9.5 | - | 14.3 | - | 0.00 | 44.3 | 100.5 | 0.49 | 79.7 | 106.7 | 45.0 | ||
| Avg | 75.4 | 17 | 26.0 | 4.4 | - | 8.0 | - | 0.00 | 13.0 | 65.1 | - | - | - | - | ||
| Min | 62.0 | 8 | 14.0 | 0.0 | - | 0.1 | - | 0.00 | 1.8 | 32.0 | 0.00 | 28.9 | 65.3 | 7.1 |
| Station | Date | Daily Max Temp (°F) | Daily Min Temp (°F) | Daily Max RH (%) | Daily Min RH (%) | Wind Spd (mph) | Wind Dir (°) | Daily Max Wind (mph) | Max Wind Dir (°) | Time of Max Wind | Daily Rain (In) | Weekly Precip (In) | Season Precip (In) | Soil Moist (%) | Fuel Temp (°F) | Fuel Moisture (%) | MinBV Day (V) |
|---|---|---|---|---|---|---|---|---|---|---|---|---|---|---|---|---|---|
| Hobart Mills | 12/23/25 | 51.8 11.3 | 33.9 2.1 | 88 12 | 42 34 | 2.1 1.7 | SW | 224 | 18.4 8.6 | WSW | 240 | 2307 | 0.65 | 6.21 | 15.12 | - | 37.6 2.8 | 42 19 | 8.0 0.7 |
| Prosser Dam | 5/8/26 | 71.8 1.5 | 28.7 8.1 | 98 1 | 16 11 | 3.1 0.7 | W | 261 | 22.2 0.5 | WNW | 291 | 1129 | 0.00 | 0.83 | 8.47 | 22.8 1.1 | 56.0 0.9 | 9 2 | 12.6 0.0 |
| West Incline Village | 5/8/26 | 64.9 0.3 | 42.5 2.2 | 60 26 | 20 7 | 3.0 0.2 | ENE | 64 | 14.8 4.2 | SSW | 196 | 1708 | 0.00 | 1.36 | 7.94 | 32.9 0.8 | 58.6 0.6 | 6 4 | 12.4 0.1 |
| Incline Village (Fairview Blvd) | 5/8/26 | 66.6 1.8 | 44.4 1.3 | 59 32 | 20 10 | 1.2 0.4 | SSE | 150 | 11.4 7.4 | WSW | 243 | 1538 | 0.00 | 1.30 | 7.48 | 26.2 0.4 | 59.4 0.6 | 8 4 | 12.6 0.0 |
| Incline Village (Diamond Peak) | 5/8/26 | 63.2 0.7 | 45.1 0.9 | 60 26 | 21 11 | 0.8 0.8 | SW | 229 | 7.5 8.3 | SSE | 148 | 1758 | 0.00 | 0.10 | 0.51 | 9.3 0.3 | -11.4 0.1 | - | 12.4 0.1 |
| Incline Village (Mill Creek) | 5/8/26 | 67.1 2.1 | 41.1 3.9 | 72 20 | 18 13 | 1.2 0.3 | W | 261 | 15.5 0.9 | WNW | 298 | 1435 | 0.00 | 1.27 | 7.18 | 11.1 0.2 | - | - | 12.4 0.0 |
| Incline Village (Lakeshore Blvd) | 5/8/26 | 64.3 2.3 | 34.0 6.1 | 83 15 | 28 24 | 1.4 1.4 | ESE | 104 | 5.5 6.7 | SSE | 166 | 1005 | 0.00 | 1.15 | 7.20 | 31.4 2.1 | 62.2 0.4 | 13 4 | 12.3 0.0 |
| Glenbrook | 5/8/26 | 66.5 2.3 | 37.5 4.1 | 92 5 | 19 24 | 1.6 0.2 | SSW | 212 | 5.7 0.9 | WSW | 254 | 1016 | 0.00 | 1.09 | 5.88 | 44.3 0.0 | 53.9 0.7 | 12 2 | 12.5 0.1 |
| Zephyr Cove | 5/8/26 | 68.2 1.5 | 39.7 4.0 | 79 14 | 18 11 | 0.0 0.0 | N | 0 | 6.8 0.1 | SW | 222 | 1359 | 0.00 | 0.02 | 0.68 | - | 46.8 3.2 | - | 12.6 0.0 |
| Kingsbury Grade | 5/8/26 | 69.2 0.8 | 36.4 4.9 | 86 7 | 18 9 | 1.3 0.1 | WSW | 249 | 13.7 2.7 | SW | 233 | 1344 | 0.00 | 0.95 | 5.82 | 7.0 0.1 | 55.4 1.6 | 8 2 | 12.5 0.0 |
| South Daggett Pass (Ridge) | 5/8/26 | 62.6 0.8 | 41.0 3.8 | 76 8 | 21 10 | 2.5 0.7 | WNW | 282 | 16.9 5.6 | W | 270 | 1853 | 0.00 | 0.73 | 4.05 | 6.7 0.1 | 54.3 0.5 | 8 2 | 12.5 0.0 |
| Palomino Valley | 5/8/26 | 79.8 0.5 | 41.6 4.2 | 69 16 | 10 4 | 4.5 1.9 | W | 280 | 24.3 4.4 | WNW | 283 | 1550 | 0.00 | 0.27 | 1.41 | 7.0 0.1 | 65.7 0.7 | 0 1 | 12.6 0.0 |
| East Cold Springs | 5/8/26 | 74.2 0.8 | 45.0 4.7 | 58 15 | 17 3 | 8.3 1.7 | W | 276 | 22.6 2.2 | WNW | 300 | 1514 | 0.00 | 0.68 | 2.09 | 1.8 0.0 | 64.9 1.0 | 8 2 | 12.6 0.0 |
| Peavine | 5/8/26 | 70.7 1.0 | 45.3 6.9 | 53 7 | 19 1 | 4.8 1.3 | NNW | 334 | 24.1 1.2 | NNE | 12 | 1544 | 0.00 | 0.67 | 2.14 | - | - | - | 12.5 0.0 |
| West Verdi Peak | 5/8/26 | 71.6 1.4 | 43.7 3.9 | 67 11 | 17 5 | 3.2 0.0 | WNW | 291 | 19.6 4.1 | NW | 305 | 1348 | 0.00 | 0.78 | 6.39 | 20.2 1.1 | 63.0 0.7 | 7 2 | 12.6 0.0 |
| West Verdi | 5/8/26 | 76.0 1.1 | 42.6 7.2 | 61 17 | 13 5 | 3.8 1.0 | W | 268 | 20.2 5.0 | S | 188 | 1545 | 0.00 | 0.65 | 5.92 | 8.0 0.1 | 64.1 0.4 | 9 2 | 12.6 0.0 |
| South Verdi | 5/8/26 | 73.9 1.9 | 40.6 9.3 | 67 7 | 13 9 | 11.6 6.8 | WSW | 248 | 27.1 7.8 | WSW | 248 | 0228 | 0.00 | 0.57 | 4.81 | 16.4 0.3 | 64.4 0.8 | 7 1 | 12.7 0.0 |
| Northwest Reno | 5/8/26 | 76.9 1.6 | 48.8 5.8 | 46 16 | 12 5 | 8.7 6.8 | WNW | 296 | 28.0 9.7 | WNW | 284 | 0103 | 0.00 | 0.33 | 1.33 | 24.0 0.1 | -17.7 0.0 | - | 12.6 0.0 |
| North Lawton | 5/8/26 | 77.0 1.3 | 47.2 5.5 | 51 16 | 13 4 | 7.3 3.2 | SW | 235 | 22.0 7.3 | S | 170 | 1618 | 0.00 | 0.44 | 2.14 | - | - | - | 12.6 0.0 |
| West Reno (Mogul) | 5/8/26 | 77.2 1.8 | 47.4 3.5 | 52 21 | 13 1 | 4.7 3.4 | WSW | 258 | 17.3 13.0 | NNW | 327 | 1405 | 0.00 | 0.34 | 4.24 | 37.0 0.6 | 69.0 0.9 | 2 2 | 12.5 0.0 |
| Caughlin (Hunter Lake Trail) | 9/15/25 | 78.6 1.3 | 52.5 3.7 | 58 7 | 23 2 | 4.2 2.5 | S | 173 | 13.0 20.5 | NNE | 31 | 1309 | 0.00 | 0.32 | 8.05 | 15.7 0.1 | 67.4 0.5 | 7 1 | 12.7 0.0 |
| ArrowCreek | 5/8/26 | 77.0 0.8 | 46.0 5.6 | 51 17 | 13 4 | 5.3 0.3 | W | 267 | 26.0 2.5 | N | 354 | 1509 | 0.00 | 0.69 | 5.25 | - | - | - | 12.4 0.0 |
| Tracy | 5/8/26 | 81.2 1.5 | 51.5 4.1 | 43 20 | 10 5 | 8.0 1.1 | W | 261 | 24.0 10.7 | W | 275 | 1346 | 0.00 | 0.37 | 1.23 | 8.1 0.0 | 71.9 0.2 | 7 1 | 12.7 0.0 |
| Virginia Highlands | 5/8/26 | 72.8 0.8 | 49.4 3.9 | 49 13 | 15 6 | 3.8 0.6 | WNW | 302 | 19.6 0.6 | N | 354 | 1615 | 0.00 | 0.44 | 2.15 | 8.2 0.2 | 65.1 0.3 | 6 2 | 12.6 0.0 |
| Virginia City | 5/8/26 | 71.1 1.1 | 53.3 1.1 | 40 19 | 15 5 | 9.2 2.9 | W | 270 | 29.4 1.9 | NNW | 335 | 2332 | 0.00 | 0.41 | 1.86 | 8.4 0.0 | 65.5 2.8 | 4 3 | 12.7 0.0 |
| Six Mile Canyon | 9/8/25 | 98.8 16.5 | 50.2 7.6 | 44 3 | 11 1 | 7.2 0.3 | WSW | 252 | 27.0 4.6 | SSE | 159 | 1325 | 0.00 | 0.00 | 0.89 | 12.6 0.1 | 69.7 3.0 | 4 0 | 12.4 0.2 |
| Mt Rose Highway | 4/29/26 | 56.6 7.9 | 35.6 4.1 | 63 16 | 31 6 | 2.2 0.0 | NW | 305 | 10.8 4.2 | NE | 35 | 1152 | 0.00 | 0.08 | 4.93 | 24.3 0.3 | 47.6 8.0 | 3 0 | 12.4 0.0 |
| Pleasant Valley | 5/8/26 | 76.9 1.6 | 40.9 6.9 | 57 21 | 15 8 | 3.9 1.9 | WSW | 250 | 19.6 6.0 | S | 189 | 1546 | 0.00 | 0.49 | 2.52 | 2.8 0.0 | 67.8 0.2 | 7 2 | 12.6 0.0 |
| New Washoe City | 5/8/26 | 75.5 1.3 | 44.2 3.1 | 53 24 | 14 8 | 5.0 1.7 | W | 276 | 20.9 6.4 | WSW | 238 | 1621 | 0.00 | 0.45 | 1.76 | 4.5 0.0 | 64.9 0.5 | 7 2 | 12.6 0.0 |
| Franktown Creek | 5/8/26 | 75.7 2.1 | 43.2 3.3 | 57 27 | 15 1 | 2.0 0.9 | W | 265 | 18.5 8.4 | S | 184 | 1446 | 0.00 | 0.64 | 5.97 | 11.2 0.0 | 60.3 1.2 | 8 3 | 12.6 0.0 |
| Musgrove Creek | 5/8/26 | 72.7 1.4 | 52.6 1.5 | 46 18 | 13 9 | 2.9 0.0 | SW | 214 | 15.2 5.3 | S | 182 | 1046 | 0.00 | 0.97 | 8.00 | 43.4 1.6 | 65.0 0.4 | 8 5 | 12.6 0.0 |
| East Carson | 11/22/24 | 63.8 0.3 | 41.7 4.6 | 85 21 | 21 9 | 14.9 6.0 | SW | 224 | 46.6 12.7 | S | 171 | 1835 | 0.05 | 0.05 | 4.48 | 2.5 0.0 | 53.9 0.3 | 9 0 | 12.6 0.0 |
| Kings Canyon | 5/8/26 | 74.3 1.3 | 43.4 3.8 | 54 20 | 13 10 | 4.7 0.6 | SSW | 200 | 18.9 5.2 | WSW | 246 | 2013 | 0.00 | 0.66 | 4.52 | 14.8 0.3 | 66.8 0.0 | 4 2 | 12.6 0.0 |
| Carson City (Voltaire Canyon) | 5/8/26 | 75.6 1.4 | 52.0 2.1 | 57 6 | 12 9 | 8.2 1.9 | SW | 229 | 25.2 1.7 | SSW | 213 | 1415 | 0.00 | 1.24 | 1.33 | 2.8 0.0 | -10.8 0.0 | - | 12.6 0.0 |
| Jacks Valley | 5/8/26 | 75.0 1.0 | 46.5 2.7 | 60 2 | 12 9 | 5.1 1.1 | WSW | 239 | 23.8 7.6 | W | 266 | 1418 | 0.00 | 0.52 | 2.50 | 13.6 0.2 | 65.2 1.1 | 7 1 | 12.6 0.0 |
| Genoa | 5/8/26 | 79.3 2.6 | 44.7 3.1 | 68 11 | 13 9 | 1.6 0.2 | SSW | 213 | 16.0 6.3 | W | 273 | 1717 | 0.00 | 0.48 | 5.22 | 7.7 0.9 | 65.2 0.1 | 9 2 | 12.3 0.0 |
| South Genoa (Walleys Hot Springs) | 5/8/26 | 77.8 0.0 | 40.3 4.0 | 90 0 | 13 7 | 4.6 0.0 | WNW | 298 | 28.8 5.7 | WSW | 257 | 1919 | 0.00 | 0.40 | 3.35 | 14.0 0.0 | 66.1 1.1 | 7 1 | 12.5 0.0 |
| SW Gardnerville (HWY 88) | 5/8/26 | 76.2 0.3 | 37.3 3.9 | 86 3 | 14 2 | 5.2 0.8 | NNW | 340 | 23.1 4.3 | NW | 316 | 1607 | 0.00 | 0.04 | 0.60 | 3.4 0.0 | 61.6 0.4 | 9 1 | 12.4 0.0 |
| Sheridan | 5/8/26 | 78.1 0.4 | 42.6 2.0 | 67 9 | 13 0 | 3.9 1.6 | WNW | 297 | 26.2 3.3 | NW | 305 | 1610 | 0.00 | 0.40 | 3.46 | 4.3 0.8 | 67.3 0.9 | 7 1 | 12.6 0.0 |
| Ruhenstroth | 5/8/26 | 78.0 0.4 | 43.0 1.9 | 64 10 | 12 3 | 4.1 0.1 | NW | 324 | 22.6 0.5 | NW | 314 | 1706 | 0.00 | 0.64 | 2.06 | 12.5 0.1 | 62.9 1.6 | 8 2 | 12.6 0.0 |
| Double Spring | 5/8/26 | 73.8 1.7 | 38.8 0.8 | 73 14 | 13 9 | 5.7 0.6 | NNW | 340 | 32.0 5.1 | NNW | 342 | 1609 | 0.00 | 0.90 | 2.44 | 31.2 0.2 | 61.3 1.1 | 8 3 | 12.6 0.0 |
| North Topaz Lake | 5/8/26 | 76.3 1.2 | 56.6 2.1 | 37 12 | 10 8 | 6.6 1.2 | WNW | 295 | 28.2 5.1 | W | 267 | 1639 | 0.00 | 0.59 | 1.68 | 9.6 0.1 | 70.4 3.2 | 6 3 | 12.6 0.0 |
| Wild Oat Mountain | 5/8/26 | 74.7 1.4 | 55.1 1.4 | 42 7 | 12 8 | 5.7 0.3 | WNW | 286 | 24.3 2.0 | WNW | 300 | 1356 | 0.00 | 0.52 | 1.77 | 16.8 0.1 | 66.1 1.0 | 6 2 | 12.6 0.0 |
| Smith Valley | 5/8/26 | 80.8 0.4 | 45.6 3.8 | 57 14 | 10 7 | 4.6 0.1 | NW | 313 | 21.5 2.7 | NNW | 335 | 1450 | 0.00 | 0.51 | 1.37 | 5.8 0.0 | 67.0 0.1 | 7 2 | 12.6 0.0 |
| Pine Grove Mountain | 5/8/26 | 66.8 2.1 | 47.4 1.7 | 36 18 | 12 11 | 8.7 0.5 | WNW | 287 | 25.3 3.9 | NW | 310 | 1751 | 0.00 | 0.57 | 0.91 | 21.3 0.9 | 60.6 0.4 | 5 3 | 12.7 0.1 |
| Paradise Hill | 5/8/26 | 78.7 3.0 | 42.0 3.7 | 47 1 | 14 1 | 6.8 1.6 | NW | 304 | 27.0 6.5 | WNW | 289 | 1326 | 0.00 | 0.00 | 2.33 | 8.0 0.0 | 67.8 2.1 | 5 1 | 12.6 0.0 |
| Winnemucca | 5/8/26 | 79.4 1.8 | 51.8 1.3 | 39 1 | 13 2 | 7.9 1.1 | SW | 219 | 28.1 6.6 | W | 279 | 1317 | 0.00 | 0.00 | 2.90 | 6.0 0.0 | 73.2 1.6 | 1 1 | 12.6 0.0 |
| NE Elko | 5/8/26 | 77.8 1.4 | 33.8 4.1 | 71 11 | 15 3 | 4.9 2.1 | WSW | 250 | 25.1 6.5 | WSW | 238 | 1546 | 0.00 | 0.04 | 2.33 | 12.4 0.0 | 61.3 0.5 | 5 1 | 12.5 0.0 |
| North Elko | 5/8/26 | 75.0 0.4 | 47.0 2.1 | 48 3 | 15 5 | 7.7 0.6 | W | 267 | 26.1 8.0 | W | 271 | 1548 | 0.00 | 0.44 | 2.48 | 28.5 0.1 | 66.2 1.5 | 5 2 | 12.6 0.0 |
| South Elko | 5/8/26 | - | 52.8 2.5 | 91 3 | 18 1 | 6.4 2.7 | WNW | 295 | 26.0 5.5 | NW | 307 | 1426 | 0.00 | 0.04 | 2.71 | 18.4 0.0 | 64.3 0.6 | 4 2 | 12.6 0.0 |
| Lamoille | 1/27/26 | 42.4 2.7 | 21.5 6.4 | 60 0 | 25 6 | 2.6 0.5 | SE | 125 | 8.2 4.1 | SE | 139 | 0137 | 0.00 | 0.00 | 0.67 | 12.3 0.2 | 26.9 1.3 | 11 0 | 8.5 2.8 |
| Reid Gardner Sub | 5/8/26 | 101.2 7.6 | 54.2 1.9 | 38 7 | 9 1 | 3.4 1.0 | SSE | 151 | 17.1 5.7 | SSE | 161 | 1513 | 0.00 | 0.00 | 0.56 | 26.2 0.9 | 98.3 18.4 | 1 0 | 12.6 0.0 |
| Corn Creek | 5/8/26 | 93.9 4.2 | 71.2 9.1 | 20 9 | 9 1 | 10.1 5.6 | W | 268 | 28.0 7.8 | NW | 308 | 1520 | 0.00 | 0.00 | 0.63 | 4.0 0.0 | 86.1 5.7 | 2 0 | 12.6 0.0 |
| Lucky Strike | 5/8/26 | 82.9 5.4 | 69.2 12.1 | 18 14 | 10 0 | 10.6 5.3 | WNW | 295 | 35.3 15.5 | N | 8 | 1635 | 0.00 | 0.00 | 1.21 | 4.6 0.1 | 79.3 6.6 | 2 1 | 12.6 0.0 |
| Lower Angel Peak | 5/8/26 | 78.5 6.2 | 56.8 10.8 | 29 19 | 14 0 | 5.6 0.9 | SW | 215 | 28.9 10.2 | NNW | 327 | 1543 | 0.00 | 0.00 | 1.93 | 10.0 0.1 | 69.6 5.9 | 2 1 | 12.6 0.0 |
| Angel Peak | 5/8/26 | 73.8 10.4 | 56.9 10.5 | 29 18 | 17 0 | 8.6 2.9 | WSW | 253 | 33.0 6.0 | WNW | 297 | 0216 | 0.00 | 0.02 | 84.72 | 4.4 0.8 | 59.4 0.2 | 4 2 | 12.7 0.2 |
| Upper Kyle Canyon | 5/8/26 | 69.8 3.3 | 48.2 4.1 | 38 6 | 12 4 | 4.7 0.2 | NW | 318 | 22.1 5.1 | NW | 308 | 1534 | 0.00 | 0.00 | 5.08 | 13.3 0.2 | 66.2 3.7 | 6 1 | 12.8 0.0 |
| Mt Charleston | 5/8/26 | 71.6 4.6 | 51.9 5.7 | 36 8 | 13 6 | 3.7 1.1 | WNW | 283 | 15.0 1.6 | NNW | 333 | 1540 | 0.00 | 0.00 | 5.28 | 18.2 0.0 | 67.5 3.9 | 28 0 | 12.6 0.0 |
| Mid Kyle Canyon | 5/8/26 | 78.0 5.3 | 56.4 7.5 | 31 9 | 14 3 | 9.0 1.0 | WNW | 293 | 32.0 11.8 | ESE | 120 | 1128 | 0.00 | 0.00 | 2.08 | 7.0 0.0 | 76.3 5.1 | 5 1 | 12.8 0.1 |
| Blue Diamond | 5/8/26 | 92.4 5.4 | 68.6 18.5 | 29 12 | 9 2 | 7.5 3.7 | WNW | 294 | 24.5 6.0 | WNW | 288 | 1659 | 0.00 | 0.00 | 0.85 | 3.0 0.0 | 86.8 10.9 | 3 1 | 12.6 0.0 |
| Artesian Sub | 5/8/26 | 102.2 6.7 | 70.2 3.8 | 26 1 | 8 1 | 2.0 0.4 | SW | 225 | 15.3 4.6 | SE | 140 | 1614 | 0.00 | 0.00 | 0.35 | 13.2 0.1 | - | 0 0 | 12.7 0.0 |
| North Henderson | 5/8/26 | 101.9 7.4 | 72.9 7.6 | 25 12 | 9 1 | 5.0 2.5 | SW | 233 | 19.8 7.4 | W | 277 | 1636 | 0.00 | 0.00 | 0.52 | 9.5 0.7 | 102.1 17.1 | 4 1 | 12.5 0.2 |
| Sandy Valley | 5/8/26 | 95.1 5.1 | 68.7 9.4 | 32 6 | 11 4 | 5.4 0.5 | NW | 318 | 31.9 12.8 | NW | 307 | 1526 | 0.00 | 0.00 | 0.62 | 4.5 0.0 | 84.6 1.9 | 3 0 | 12.6 0.1 |
| Searchlight | 5/8/26 | 92.9 6.0 | 68.5 12.3 | 31 5 | 13 1 | 5.8 0.2 | N | 352 | 29.8 7.2 | SSW | 202 | 1526 | 0.00 | 0.00 | 0.51 | 4.8 0.1 | 88.2 10.0 | 1 0 | 12.6 0.0 |
| Laughlin | 5/8/26 | 105.7 6.0 | 73.6 4.7 | 22 12 | 10 2 | 4.3 3.4 | S | 185 | 19.6 3.4 | SE | 144 | 1732 | 0.00 | 0.00 | 0.29 | 4.2 0.0 | 91.7 2.9 | 3 0 | 12.8 0.0 |
| 31Mission Hills | 5/8/26 | 97.6 6.4 | 74.2 6.2 | 18 4 | 9 2 | 5.4 0.9 | W | 278 | 28.4 10.6 | W | 274 | 1604 | 0.00 | - | 0.00 | 3.8 0.0 | 90.6 6.1 | 5 1 | 13.2 0.0 |
| 32 Enterprise Sierra Cliffs | 5/8/26 | 94.6 5.8 | 73.0 6.1 | 19 6 | 7 3 | 7.1 0.6 | SW | 228 | 25.7 7.2 | WNW | 282 | 1511 | 0.00 | - | 0.00 | 2.3 0.0 | 87.8 6.1 | 6 1 | 13.2 0.1 |
| Max | 105.7 | 74.2 | 98 | 28 | 11.6 | - | 35.3 | - | - | 0.00 | - | 84.72 | 44.3 | 102.1 | 28 | 13.2 | |
| Avg | - | - | - | - | 5.1 | - | - | - | - | - | - | - | 13.3 | 64.4 | 6 | - | |
| Min | 62.6 | 28.7 | 18 | 7 | 0.0 | - | 5.5 | - | - | 0.00 | - | 0.00 | 1.8 | -17.7 | 0 | 12.3 |